This is the latest recevied weather packets stored in our database for station/object VK4AB-13. If no packets are shown the sender has not sent any weather packets the latest 10 day(s).
| Time | Temp. | Humidity | Pressure | Rain* | Wind** | Luminosity | Snow |
|---|---|---|---|---|---|---|---|
| 1778194722 | 15° C | 45% | 1020.9 hPa | 0 mm | - | 485 W/m² | - |
| 1778194422 | 14.44° C | 45% | 1020.8 hPa | 0 mm | - | 471 W/m² | - |
| 1778194121 | 14.44° C | 45% | 1020.9 hPa | 0 mm | - | 457 W/m² | - |
| 1778193822 | 14.44° C | 47% | 1021 hPa | 0 mm | - | 443 W/m² | - |
| 1778193522 | 13.89° C | 46% | 1021 hPa | 0 mm | - | 431 W/m² | - |
| 1778193222 | 13.89° C | 48% | 1021.1 hPa | 0 mm | - | 415 W/m² | - |
| 1778192922 | 13.89° C | 47% | 1021.1 hPa | 0 mm | - | 401 W/m² | - |
| 1778192622 | 13.33° C | 49% | 1021.1 hPa | 0 mm | - | 385 W/m² | - |
| 1778192322 | 13.33° C | 51% | 1020.9 hPa | 0 mm | - | 367 W/m² | - |
| 1778192022 | 12.78° C | 53% | 1020.7 hPa | 0 mm | - | 352 W/m² | - |
| 1778191722 | 12.78° C | 52% | 1020.6 hPa | 0 mm | - | 339 W/m² | - |
| 1778191422 | 12.22° C | 53% | 1020.6 hPa | 0 mm | - | 322 W/m² | - |
| 1778191122 | 12.22° C | 53% | 1020.6 hPa | 0 mm | - | 304 W/m² | - |
| 1778190822 | 11.67° C | 55% | 1020.6 hPa | 0 mm | - | 288 W/m² | - |
| 1778190522 | 11.11° C | 56% | 1020.6 hPa | 0 mm | - | 271 W/m² | - |
| 1778190222 | 11.11° C | 56% | 1020.5 hPa | 0 mm | - | 255 W/m² | - |
| 1778189922 | 11.11° C | 56% | 1020.4 hPa | 0 mm | - | 237 W/m² | - |
| 1778189622 | 10.56° C | 57% | 1020.4 hPa | 0 mm | - | 225 W/m² | - |
| 1778189322 | 10.56° C | 59% | 1020.4 hPa | 0 mm | - | 204 W/m² | - |
| 1778189022 | 10° C | 59% | 1020.4 hPa | 0 mm | - | 183 W/m² | - |
| 1778188722 | 10° C | 60% | 1020.6 hPa | 0 mm | - | 160 W/m² | - |
| 1778188422 | 9.44° C | 59% | 1020.5 hPa | 0 mm | - | 137 W/m² | - |
| 1778188122 | 9.44° C | 60% | 1020.5 hPa | 0 mm | - | 116 W/m² | - |
| 1778187822 | 9.44° C | 59% | 1020.3 hPa | 0 mm | - | 62 W/m² | - |
| 1778187522 | 9.44° C | 60% | 1020.2 hPa | 0 mm | - | 19 W/m² | - |
* Rain latest hour (hover to see other rain measurements)
** Current wind speed in m/s (hover to see current wind gust speed)